This is the latest recevied weather packets stored in our database for station/object K8GLX. If no packets are shown the sender has not sent any weather packets the latest 10 day(s).
| Time | Temp. | Humidity | Pressure | Rain* | Wind** | Luminosity | Snow |
|---|---|---|---|---|---|---|---|
| 1777675029 | 7.22° C | 70% | 1014 hPa | 0 mm | - | 99 W/m² | - |
| 1777674734 | 7.22° C | 70% | 1013.9 hPa | 0 mm | - | 180 W/m² | - |
| 1777674430 | 6.67° C | 71% | 1013.8 hPa | 0 mm | - | 96 W/m² | - |
| 1777674135 | 6.67° C | 69% | 1013.8 hPa | 0 mm | - | 99 W/m² | - |
| 1777673829 | 6.67° C | 69% | 1013.8 hPa | 0 mm | - | 109 W/m² | - |
| 1777673535 | 6.67° C | 69% | 1013.8 hPa | 0 mm | - | 115 W/m² | - |
| 1777673332 | 6.67° C | 69% | 1013.8 hPa | 0 mm | - | 127 W/m² | - |
| 1777673052 | 6.67° C | 67% | 1013.7 hPa | 0 mm | - | 134 W/m² | - |
| 1777672629 | 7.22° C | 71% | 1013.7 hPa | 0 mm | - | 152 W/m² | - |
| 1777672463 | 7.22° C | 71% | 1013.6 hPa | 0 mm | - | 150 W/m² | - |
| 1777672029 | 7.22° C | 73% | 1013.6 hPa | 0 mm | - | 157 W/m² | - |
| 1777671736 | 7.22° C | 74% | 1013.8 hPa | 0 mm | - | 191 W/m² | - |
| 1777671429 | 6.67° C | 74% | 1013.6 hPa | 0 mm | - | 154 W/m² | - |
| 1777671134 | 6.67° C | 77% | 1013.7 hPa | 0 mm | - | 148 W/m² | - |
| 1777670828 | 6.67° C | 77% | 1013.7 hPa | 0 mm | - | 157 W/m² | - |
| 1777670534 | 6.67° C | 79% | 1013.7 hPa | 0 mm | - | 140 W/m² | - |
| 1777670229 | 6.11° C | 77% | 1013.7 hPa | 0 mm | - | 134 W/m² | - |
| 1777670060 | 6.11° C | 78% | 1013.4 hPa | 0 mm | - | 165 W/m² | - |
| 1777669629 | 6.11° C | 80% | 1013.5 hPa | 0 mm | - | 177 W/m² | - |
| 1777669462 | 6.11° C | 81% | 1013.2 hPa | 0.25 mm | - | 192 W/m² | - |
| 1777669029 | 6.11° C | 80% | 1013.3 hPa | 0.25 mm | - | 175 W/m² | - |
| 1777668862 | 6.11° C | 81% | 1013.4 hPa | 0.25 mm | - | 204 W/m² | - |
| 1777668429 | 5.56° C | 81% | 1013.3 hPa | 0.51 mm | - | 285 W/m² | - |
| 1777668134 | 5.56° C | 82% | 1013.4 hPa | 0.51 mm | - | 289 W/m² | - |
| 1777667829 | 5.56° C | 83% | 1013.3 hPa | 0.51 mm | - | 249 W/m² | - |
* Rain latest hour (hover to see other rain measurements)
** Current wind speed in m/s (hover to see current wind gust speed)